TimeEDT,TemperatureF,Dew PointF,Humidity,Sea Level PressureIn,VisibilityMPH,Wind Direction,Wind SpeedMPH,Gust SpeedMPH,PrecipitationIn,Events,Conditions,WindDirDegrees,DateUTC
12:15 AM,56.1,51.8,85,30.12,10.0,Calm,Calm,-,N/A,,Clear,0,2013-08-19 04:15:00
12:35 AM,55.6,52.0,88,30.12,10.0,Calm,Calm,-,N/A,,Clear,0,2013-08-19 04:35:00
12:55 AM,54.5,51.3,89,30.11,10.0,Calm,Calm,-,N/A,,Clear,0,2013-08-19 04:55:00
1:15 AM,55.2,52.0,89,30.11,10.0,Calm,Calm,-,N/A,,Clear,0,2013-08-19 05:15:00
1:35 AM,53.2,50.4,90,30.11,1.0,Calm,Calm,-,N/A,,Mist,0,2013-08-19 05:35:00
1:55 AM,53.1,50.4,91,30.11,2.0,Calm,Calm,-,N/A,,Clear,0,2013-08-19 05:55:00
2:15 AM,52.9,50.2,91,30.11,3.0,Calm,Calm,-,N/A,,Clear,0,2013-08-19 06:15:00
2:35 AM,52.9,50.2,91,30.10,5.0,Calm,Calm,-,N/A,,Clear,0,2013-08-19 06:35:00
2:55 AM,52.7,50.0,91,30.10,1.0,Calm,Calm,-,N/A,,Mist,0,2013-08-19 06:55:00
3:15 AM,52.5,50.0,91,30.09,0.5,Calm,Calm,-,N/A,Fog,Fog,0,2013-08-19 07:15:00
3:35 AM,52.5,50.0,91,30.09,0.2,Calm,Calm,-,N/A,Fog,Fog,0,2013-08-19 07:35:00
3:55 AM,50.5,48.0,91,30.08,0.5,Calm,Calm,-,N/A,Fog,Fog,0,2013-08-19 07:55:00
4:15 AM,51.6,49.3,92,30.08,0.2,Calm,Calm,-,N/A,Fog,Fog,0,2013-08-19 08:15:00
4:35 AM,50.5,48.2,92,30.08,1.0,Calm,Calm,-,N/A,,Mist,0,2013-08-19 08:35:00
4:55 AM,49.1,46.8,92,30.08,0.2,Calm,Calm,-,N/A,Fog,Fog,0,2013-08-19 08:55:00
5:15 AM,49.1,46.8,92,30.07,0.2,Calm,Calm,-,N/A,Fog,Fog,0,2013-08-19 09:15:00
5:35 AM,49.5,47.1,92,30.07,0.2,Calm,Calm,-,N/A,Fog,Fog,0,2013-08-19 09:35:00
5:55 AM,49.5,47.1,92,30.07,0.2,Calm,Calm,-,N/A,Fog,Fog,0,2013-08-19 09:55:00
6:15 AM,49.6,47.3,92,30.07,0.5,Calm,Calm,-,N/A,Fog,Fog,0,2013-08-19 10:15:00
6:35 AM,50.4,48.0,92,30.07,0.2,Calm,Calm,-,N/A,Fog,Fog,0,2013-08-19 10:35:00
6:55 AM,51.3,48.9,92,30.07,0.2,Calm,Calm,-,N/A,Fog,Fog,0,2013-08-19 10:55:00
7:15 AM,51.8,49.3,91,30.07,0.2,Calm,Calm,-,N/A,Fog,Fog,0,2013-08-19 11:15:00
7:35 AM,52.7,50.4,92,30.07,0.2,Calm,Calm,-,N/A,Fog,Fog,0,2013-08-19 11:35:00
7:55 AM,52.7,50.4,92,30.07,0.2,Calm,Calm,-,N/A,Fog,Fog,0,2013-08-19 11:55:00
8:15 AM,53.4,51.1,92,30.07,0.2,Calm,Calm,-,N/A,Fog,Fog,0,2013-08-19 12:15:00
8:35 AM,53.6,51.3,92,30.07,0.2,Calm,Calm,-,N/A,Fog,Fog,0,2013-08-19 12:35:00
8:55 AM,55.8,53.4,92,30.07,0.2,Calm,Calm,-,N/A,Fog,Fog,0,2013-08-19 12:55:00
9:15 AM,57.2,54.7,91,30.07,3.0,Calm,Calm,-,N/A,,Overcast,0,2013-08-19 13:15:00
9:35 AM,58.3,55.9,92,30.06,10.0,Calm,Calm,-,N/A,,Scattered Clouds,0,2013-08-19 13:35:00
9:55 AM,59.9,57.2,91,30.06,10.0,South,3.5,-,N/A,,Clear,170,2013-08-19 13:55:00
10:15 AM,61.7,59.0,91,30.06,10.0,Calm,Calm,-,N/A,,Clear,0,2013-08-19 14:15:00
10:35 AM,66.4,61.0,83,30.05,10.0,Calm,Calm,-,N/A,,Clear,0,2013-08-19 14:35:00
10:55 AM,70.2,57.4,64,30.05,10.0,SSW,3.5,-,N/A,,Clear,210,2013-08-19 14:55:00
11:15 AM,71.4,56.5,59,30.04,10.0,South,3.5,-,N/A,,Clear,170,2013-08-19 15:15:00
11:35 AM,73.9,55.8,53,30.04,10.0,West,6.9,-,N/A,,Clear,280,2013-08-19 15:35:00
11:55 AM,75.7,53.6,46,30.04,10.0,West,8.1,-,N/A,,Clear,280,2013-08-19 15:55:00
12:15 PM,77.4,54.3,45,30.04,10.0,West,9.2,17.3,N/A,,Clear,280,2013-08-19 16:15:00
12:35 PM,77.4,54.1,44,30.03,10.0,WNW,11.5,17.3,N/A,,Clear,290,2013-08-19 16:35:00
12:55 PM,77.5,54.7,45,30.02,10.0,WNW,10.4,18.4,N/A,,Scattered Clouds,300,2013-08-19 16:55:00
1:15 PM,77.5,55.6,47,30.01,10.0,West,8.1,-,N/A,,Scattered Clouds,260,2013-08-19 17:15:00
1:35 PM,78.3,56.3,47,30.01,10.0,West,8.1,-,N/A,,Scattered Clouds,280,2013-08-19 17:35:00
1:55 PM,77.4,55.8,47,30.01,10.0,West,9.2,-,N/A,,Scattered Clouds,280,2013-08-19 17:55:00
2:15 PM,78.6,55.4,45,30.01,10.0,West,8.1,17.3,N/A,,Scattered Clouds,280,2013-08-19 18:15:00
2:35 PM,79.3,54.9,43,30.01,10.0,West,12.7,19.6,N/A,,Scattered Clouds,270,2013-08-19 18:35:00
2:55 PM,79.3,54.1,42,30.00,10.0,West,12.7,18.4,N/A,,Scattered Clouds,260,2013-08-19 18:55:00
3:15 PM,79.2,54.0,42,30.00,10.0,West,12.7,20.7,N/A,,Scattered Clouds,270,2013-08-19 19:15:00
3:35 PM,79.0,53.8,42,30.00,10.0,West,9.2,16.1,N/A,,Scattered Clouds,270,2013-08-19 19:35:00
3:55 PM,79.2,55.0,43,30.00,10.0,West,11.5,16.1,N/A,,Clear,280,2013-08-19 19:55:00
4:15 PM,77.7,54.9,45,30.01,10.0,West,9.2,20.7,N/A,,Scattered Clouds,270,2013-08-19 20:15:00
4:35 PM,77.9,54.1,44,30.00,10.0,West,15.0,19.6,N/A,,Scattered Clouds,280,2013-08-19 20:35:00
4:55 PM,78.1,55.0,45,30.00,10.0,West,11.5,16.1,N/A,,Scattered Clouds,280,2013-08-19 20:55:00
5:15 PM,77.4,55.8,47,30.00,10.0,NW,10.4,19.6,N/A,,Scattered Clouds,310,2013-08-19 21:15:00
5:35 PM,77.4,56.7,49,30.01,10.0,WNW,11.5,17.3,N/A,,Clear,290,2013-08-19 21:35:00
5:55 PM,76.5,56.7,50,30.01,10.0,WNW,6.9,-,N/A,,Clear,290,2013-08-19 21:55:00
6:15 PM,75.6,56.5,51,30.01,10.0,West,3.5,-,N/A,,Clear,280,2013-08-19 22:15:00
6:35 PM,74.7,56.5,53,30.02,10.0,WNW,6.9,-,N/A,,Clear,290,2013-08-19 22:35:00
6:55 PM,73.8,56.3,54,30.02,10.0,WNW,5.8,-,N/A,,Clear,300,2013-08-19 22:55:00
7:15 PM,72.1,56.5,58,30.02,10.0,Calm,Calm,-,N/A,,Clear,0,2013-08-19 23:15:00
7:35 PM,71.2,56.8,60,30.02,10.0,Calm,Calm,-,N/A,,Clear,0,2013-08-19 23:35:00
7:55 PM,70.3,57.0,63,30.02,10.0,Calm,Calm,-,N/A,,Clear,0,2013-08-19 23:55:00
8:15 PM,70.3,56.8,62,30.02,10.0,Calm,Calm,-,N/A,,Clear,0,2013-08-20 00:15:00
8:35 PM,69.4,56.7,64,30.02,10.0,Calm,Calm,-,N/A,,Clear,0,2013-08-20 00:35:00
8:55 PM,66.7,56.7,70,30.02,10.0,SE,3.5,-,N/A,,Clear,140,2013-08-20 00:55:00
9:15 PM,65.3,57.7,76,30.03,10.0,Calm,Calm,-,N/A,,Clear,0,2013-08-20 01:15:00
9:35 PM,67.6,57.0,69,30.04,10.0,Calm,Calm,-,N/A,,Clear,0,2013-08-20 01:35:00
9:55 PM,65.5,57.2,75,30.04,10.0,Calm,Calm,-,N/A,,Clear,0,2013-08-20 01:55:00
10:15 PM,65.7,57.6,75,30.04,10.0,Calm,Calm,-,N/A,,Clear,0,2013-08-20 02:15:00
10:35 PM,64.0,57.9,80,30.04,10.0,Calm,Calm,-,N/A,,Clear,0,2013-08-20 02:35:00
10:55 PM,63.7,57.2,79,30.04,10.0,Calm,Calm,-,N/A,,Clear,0,2013-08-20 02:55:00
11:15 PM,63.5,57.4,80,30.04,10.0,Calm,Calm,-,N/A,,Clear,0,2013-08-20 03:15:00
11:35 PM,61.3,56.8,85,30.04,10.0,SSE,3.5,-,N/A,,Clear,150,2013-08-20 03:35:00
11:55 PM,61.3,57.6,87,30.04,10.0,Calm,Calm,-,N/A,,Clear,0,2013-08-20 03:55:00